Location: �terpigny
(49.8910°N, 2.9249°E)
Time: 20:23:18
(UTC+00:00)

Gurwin Techsat 1B - Pass Details

Date: 30 June 2022
Orbit: 812 x 813 km, 98.8° (Epoch: 16 August)

Event Time Altitude Azimuth Distance (km) Brightness Sun altitude
Rises 00:42:38 0° 33° (NNE) 3,347 13.2 -16.1°
Reaches altitude 10° 00:47:08 10° 68° (ENE) 2,407 11.5 -15.9°
Maximum altitude 00:48:33 11° 84° (E) 2,335 11.2 -15.9°
Drops below altitude 10° 00:49:57 10° 100° (E) 2,402 11.1 -15.8°
Enters shadow 00:54:19 - 135° (SE) 3,300 11.5 -15.6°
